When you browse on this site, cookies collect data to enhance your experience and personalize the content and advertising you see.
Visit our Privacy Policy to learn more. By continuing to use the site, you agree to this use of cookies and data.
  • In Sweden
  • List of Countries
  • For 7 days
  • Water Temperature
  • Satellite Maps
  • Weather Map
  • Weather Widgets
  • user-avatar
    Login

    Hourly Weather Onyshkivtsi

    Today, 22 April, Monday

    Time Temperature Precipitation Wind Pressure Humidity
    00:00 +7°C° 0 mm 3 mps 743 mmHg 93%
    01:00 +6°C° 0 mm 4 mps 744 mmHg 92%
    02:00 +7°C° 0 mm 3 mps 744 mmHg 93%
    03:00 +6°C° 0 mm 4 mps 744 mmHg 89%
    04:00 +6°C° 0 mm 4 mps 744 mmHg 86%
    05:00 +6°C° 0 mm 4 mps 744 mmHg 83%
    06:00 +7°C° 0 mm 5 mps 745 mmHg 76%
    07:00 +8°C° 0 mm 6 mps 745 mmHg 69%
    08:00 +9°C° 0 mm 7 mps 745 mmHg 63%
    09:00 +10°C° 0 mm 7 mps 746 mmHg 57%
    10:00 +11°C° 0 mm 7 mps 746 mmHg 51%
    11:00 +12°C° 0 mm 7 mps 746 mmHg 46%
    12:00 +14°C° 0 mm 7 mps 746 mmHg 45%
    13:00 +14°C° 0 mm 7 mps 746 mmHg 43%
    14:00 +14°C° 0 mm 7 mps 746 mmHg 42%
    15:00 +14°C° 0 mm 7 mps 746 mmHg 43%
    16:00 +14°C° 0 mm 7 mps 747 mmHg 43%
    17:00 +14°C° 0 mm 7 mps 747 mmHg 44%
    18:00 +11°C° 0 mm 6 mps 747 mmHg 48%
    19:00 +10°C° 0 mm 5 mps 747 mmHg 52%
    20:00 +10°C° 0 mm 4 mps 747 mmHg 57%
    21:00 +8°C° 0 mm 4 mps 747 mmHg 58%
    22:00 +8°C° 0 mm 4 mps 748 mmHg 60%
    23:00 +7°C° 0 mm 4 mps 748 mmHg 61%

    Tomorrow, 23 April, Tuesday

    Time Temperature Precipitation Wind Pressure Humidity
    00:00 +7°C° 0 mm 4 mps 748 mmHg 62%
    01:00 +7°C° 0 mm 4 mps 748 mmHg 63%
    02:00 +6°C° 0 mm 4 mps 748 mmHg 64%
    03:00 +6°C° 0 mm 4 mps 748 mmHg 65%
    04:00 +6°C° 0 mm 4 mps 748 mmHg 66%
    05:00 +5°C° 0 mm 4 mps 748 mmHg 67%
    06:00 +7°C° 0 mm 5 mps 749 mmHg 63%
    07:00 +8°C° 0 mm 6 mps 749 mmHg 59%
    08:00 +10°C° 0 mm 7 mps 749 mmHg 55%
    09:00 +11°C° 0 mm 7 mps 749 mmHg 50%
    10:00 +12°C° 0 mm 8 mps 749 mmHg 45%
    11:00 +13°C° 0 mm 9 mps 749 mmHg 41%
    12:00 +15°C° 0 mm 9 mps 748 mmHg 41%
    13:00 +15°C° 0 mm 9 mps 748 mmHg 40%
    14:00 +16°C° 0 mm 9 mps 748 mmHg 40%
    15:00 +15°C° 0 mm 8 mps 748 mmHg 42%
    16:00 +15°C° 0 mm 8 mps 747 mmHg 44%
    17:00 +15°C° 0 mm 8 mps 747 mmHg 46%
    18:00 +14°C° 0 mm 7 mps 747 mmHg 50%
    19:00 +11°C° 0 mm 6 mps 747 mmHg 53%
    20:00 +10°C° 0 mm 5 mps 747 mmHg 57%
    21:00 +10°C° 0 mm 6 mps 747 mmHg 58%
    22:00 +9°C° 0 mm 6 mps 747 mmHg 59%
    23:00 +9°C° 0 mm 6 mps 747 mmHg 60%

    Day after tomorrow, 24 April, Wednesday

    Time Temperature Precipitation Wind Pressure Humidity
    00:00 +8°C° 0 mm 6 mps 747 mmHg 61%
    01:00 +8°C° 0 mm 6 mps 747 mmHg 63%
    02:00 +7°C° 0 mm 5 mps 747 mmHg 65%
    03:00 +7°C° 0 mm 6 mps 747 mmHg 64%
    04:00 +7°C° 0 mm 6 mps 747 mmHg 63%
    05:00 +5°C° 0 mm 6 mps 747 mmHg 62%
    06:00 +6°C° 0 mm 7 mps 747 mmHg 60%
    07:00 +7°C° 0 mm 8 mps 747 mmHg 58%
    08:00 +8°C° 0 mm 9 mps 747 mmHg 56%
    09:00 +10°C° 0 mm 9 mps 747 mmHg 55%
    10:00 +10°C° 0 mm 9 mps 747 mmHg 54%
    11:00 +11°C° 0 mm 9 mps 747 mmHg 54%
    12:00 +12°C° 0 mm 8 mps 747 mmHg 52%
    13:00 +13°C° 0 mm 8 mps 747 mmHg 51%
    14:00 +15°C° 0 mm 8 mps 747 mmHg 49%
    15:00 +15°C° 0 mm 8 mps 747 mmHg 50%
    16:00 +16°C° 0 mm 8 mps 747 mmHg 50%
    17:00 +16°C° 0 mm 7 mps 746 mmHg 51%
    18:00 +15°C° 0 mm 7 mps 746 mmHg 55%
    19:00 +13°C° 0 mm 6 mps 746 mmHg 60%
    20:00 +12°C° 0 mm 5 mps 746 mmHg 65%
    21:00 +10°C° 0 mm 5 mps 746 mmHg 65%
    22:00 +10°C° 0 mm 5 mps 747 mmHg 66%
    23:00 +10°C° 0 mm 6 mps 747 mmHg 66%

    25 April, Thursday

    Time Temperature Precipitation Wind Pressure Humidity
    00:00 +10°C° 0 mm 6 mps 747 mmHg 67%
    01:00 +9°C° 0 mm 6 mps 747 mmHg 67%
    02:00 +9°C° 0 mm 6 mps 747 mmHg 67%
    03:00 +9°C° 0 mm 6 mps 747 mmHg 69%
    04:00 +8°C° 0 mm 6 mps 747 mmHg 70%
    05:00 +8°C° 0 mm 6 mps 747 mmHg 72%
    06:00 +9°C° 0 mm 6 mps 747 mmHg 70%
    07:00 +10°C° 0 mm 7 mps 747 mmHg 68%
    08:00 +11°C° 0 mm 7 mps 747 mmHg 65%
    09:00 +14°C° 0 mm 7 mps 747 mmHg 61%
    10:00 +15°C° 0 mm 7 mps 747 mmHg 57%
    11:00 +17°C° 0 mm 7 mps 747 mmHg 53%
    12:00 +17°C° 0 mm 7 mps 747 mmHg 51%
    13:00 +18°C° 0 mm 7 mps 746 mmHg 50%
    14:00 +20°C° 0 mm 7 mps 746 mmHg 48%
    15:00 +20°C° 0 mm 7 mps 746 mmHg 50%
    16:00 +20°C° 0 mm 7 mps 746 mmHg 51%
    17:00 +18°C° 0 mm 7 mps 745 mmHg 52%
    18:00 +17°C° 0 mm 6 mps 745 mmHg 56%
    19:00 +16°C° 0 mm 6 mps 745 mmHg 60%
    20:00 +14°C° 0 mm 5 mps 745 mmHg 64%
    21:00 +14°C° 0 mm 5 mps 745 mmHg 65%
    22:00 +13°C° 0 mm 5 mps 745 mmHg 66%
    23:00 +13°C° 0 mm 5 mps 745 mmHg 66%

    26 April, Friday

    Time Temperature Precipitation Wind Pressure Humidity
    00:00 +13°C° 0 mm 5 mps 745 mmHg 67%
    01:00 +12°C° 0 mm 5 mps 745 mmHg 68%
    02:00 +12°C° 0 mm 5 mps 745 mmHg 69%
    03:00 +12°C° 0 mm 5 mps 745 mmHg 71%
    04:00 +10°C° 0 mm 5 mps 744 mmHg 72%
    05:00 +10°C° 0 mm 5 mps 744 mmHg 74%
    06:00 +12°C° 0 mm 5 mps 744 mmHg 72%
    07:00 +13°C° 0 mm 6 mps 744 mmHg 70%
    08:00 +14°C° 0 mm 6 mps 744 mmHg 68%
    09:00 +15°C° 0 mm 6 mps 744 mmHg 65%
    10:00 +17°C° 0 mm 6 mps 744 mmHg 61%
    11:00 +20°C° 0 mm 6 mps 744 mmHg 58%
    12:00 +21°C° 0 mm 6 mps 743 mmHg 57%
    13:00 +22°C° 0 mm 6 mps 743 mmHg 55%
    14:00 +23°C° 0 mm 6 mps 743 mmHg 53%
    15:00 +22°C° 0 mm 6 mps 742 mmHg 54%
    16:00 +22°C° 0 mm 6 mps 742 mmHg 55%
    17:00 +22°C° 0 mm 6 mps 741 mmHg 56%
    18:00 +20°C° 0.1 mm 6 mps 741 mmHg 59%
    19:00 +19°C° 0.1 mm 5 mps 741 mmHg 63%
    20:00 +16°C° 0.1 mm 5 mps 741 mmHg 66%
    21:00 +15°C° 0 mm 5 mps 741 mmHg 65%
    22:00 +15°C° 0 mm 6 mps 741 mmHg 65%
    23:00 +14°C° 0 mm 6 mps 741 mmHg 64%

    27 April, Saturday

    Time Temperature Precipitation Wind Pressure Humidity
    00:00 +14°C° 0.5 mm 5 mps 741 mmHg 67%
    01:00 +13°C° 0.5 mm 4 mps 741 mmHg 70%
    02:00 +12°C° 0.5 mm 4 mps 741 mmHg 73%
    03:00 +12°C° 0.1 mm 4 mps 740 mmHg 75%
    04:00 +11°C° 0.1 mm 4 mps 740 mmHg 76%
    05:00 +11°C° 0.1 mm 4 mps 740 mmHg 77%
    06:00 +12°C° 0 mm 4 mps 740 mmHg 75%
    07:00 +13°C° 0 mm 4 mps 741 mmHg 73%
    08:00 +14°C° 0 mm 4 mps 741 mmHg 71%
    09:00 +17°C° 0.1 mm 4 mps 741 mmHg 68%
    10:00 +18°C° 0.1 mm 3 mps 741 mmHg 64%
    11:00 +20°C° 0.1 mm 3 mps 741 mmHg 61%
    12:00 +21°C° 0 mm 3 mps 741 mmHg 59%
    13:00 +23°C° 0 mm 2 mps 741 mmHg 57%
    14:00 +23°C° 0 mm 2 mps 741 mmHg 55%
    15:00 +21°C° 1.3 mm 3 mps 741 mmHg 61%
    16:00 +21°C° 1.3 mm 3 mps 741 mmHg 67%
    17:00 +20°C° 1.3 mm 4 mps 741 mmHg 73%
    18:00 +18°C° 0.3 mm 3 mps 741 mmHg 80%
    19:00 +17°C° 0.3 mm 3 mps 741 mmHg 87%
    20:00 +16°C° 0.3 mm 3 mps 741 mmHg 94%
    21:00 +16°C° 0.4 mm 3 mps 741 mmHg 94%
    22:00 +15°C° 0.4 mm 2 mps 742 mmHg 95%
    23:00 +15°C° 0.4 mm 2 mps 742 mmHg 96%
    Show more